This demonstration page uses our WeatherBlox Daily Observations layout. Learn more.

Left ArrowRight Arrow

Hourly Observations for January 4, 2015

Temp ( °F °C ) Dew Point ( °F °C ) Humidity (%) Winds ( mph kmh ) Pressure ( in mb ) Visibility ( mi km ) Precip ( " mm )
12:26 am 00:26 Mostly Cloudy with Light Snow 10 -12 7 -14 85 85 NNW 23 37 30.30 1026 1 1 0.00 0.00
12:39 am 00:39 Mostly Cloudy with Light Snow 11 -11.7 7 -13.9 84 84 NNW 21 33 30.33 1027 1 1 0.00 0.03
12:52 am 00:52 Mostly Cloudy with Light Snow 11 -11.7 6 -14.4 81 81 NNW 20 31 30.25 1024 1 1 0.00 0.03
1:12 am 01:12 Mostly Cloudy with Light Snow 10 -12 5 -15 79 79 NNW 25 41 30.33 1027 1 1 0.00 0.00
1:52 am 01:52 Mostly Cloudy with Light Snow 9 -12.8 5 -15 84 84 NNW 23 37 30.27 1025 1 1 0.00 0.03
2:52 am 02:52 Mostly Cloudy with Light Snow 7 -13.9 3 -16.1 84 84 NNW 25 41 30.28 1025 1 1 0.02 0.51
3:15 am 03:15 Windy with Snow Likely 6 -14.4 2 -16.7 83 83 NNW 24 39 30.36 1028 3 5 0.00 0.03
3:28 am 03:28 Windy with Snow Likely 7 -14 1 -17 78 78 NNW 22 35 30.36 1028 4 6 0.00 0.00
3:52 am 03:52 Mostly Cloudy with Blowing Snow 6 -14.4 -2 -18.9 69 69 NNW 24 39 30.32 1027 6 10 0.00 0.03
4:10 am 04:10 Clear 5 -15 -2 -19 72 72 NW 26 43 30.45 1031 10 16 0.00 0.00
4:52 am 04:52 Partly Cloudy 5 -15 -3 -19.4 69 69 NNW 28 44 30.35 1028 10 16 0.00 0.00
5:52 am 05:52 Mostly Clear 2 -16.7 -6 -21.1 69 69 NNW 23 37 30.41 1030 10 16 0.00 0.00
6:52 am 06:52 Mostly Clear 1 -17.2 -8 -22.2 65 65 NNW 28 44 30.47 1032 10 16 0.00 0.00
7:52 am 07:52 Mostly Sunny -1 -18.3 -9 -22.8 68 68 NNW 18 30 30.53 1034 10 16 0.00 0.00
8:52 am 08:52 Mostly Sunny 0 -17.8 -10 -23.3 62 62 NNW 18 30 30.58 1036 10 16 0.00 0.00
9:52 am 09:52 Mostly Sunny 1 -17.2 -9 -22.8 62 62 NNW 24 39 30.60 1036 10 16 0.00 0.00
10:52 am 10:52 Mostly Sunny 3 -16.1 -9 -22.8 57 57 NNW 18 30 30.63 1037 10 16 0.00 0.00
11:52 am 11:52 Mostly Sunny 5 -15 -7 -21.7 57 57 NW 17 28 30.62 1037 10 16 0.00 0.00
12:52 pm 12:52 Mostly Sunny 7 -13.9 -7 -21.7 52 52 N 12 19 30.61 1037 10 16 0.00 0.00
1:52 pm 13:52 Mostly Sunny 10 -12.2 -6 -21.1 48 48 NW 13 20 30.63 1037 10 16 0.00 0.00
2:52 pm 14:52 Mostly Sunny 10 -12.2 -6 -21.1 48 48 NW 15 24 30.66 1038 10 16 0.00 0.00
3:52 pm 15:52 Partly Cloudy 9 -12.8 -6 -21.1 50 50 NW 14 22 30.69 1039 10 16 0.00 0.00
4:52 pm 16:52 Partly Cloudy 7 -13.9 -8 -22.2 50 50 WNW 13 20 30.70 1040 10 16 0.00 0.00
5:52 pm 17:52 Clear 4 -15.6 -7 -21.7 60 60 NW 9 15 30.73 1041 10 16 0.00 0.00
6:52 pm 18:52 Mostly Cloudy 3 -16.1 -7 -21.7 62 62 NW 8 13 30.74 1041 10 16 0.00 0.00
7:52 pm 19:52 Mostly Cloudy 5 -15 -6 -21.1 60 60 NW 8 13 30.75 1041 10 16 0.00 0.00
8:52 pm 20:52 Cloudy 6 -14.4 -5 -20.6 60 60 NW 9 15 30.75 1041 10 16 0.00 0.00
9:52 pm 21:52 Cloudy 7 -13.9 -4 -20 60 60 NW 8 13 30.76 1042 10 16 0.00 0.00
10:52 pm 22:52 Cloudy 7 -13.9 -2 -18.9 66 66 NW 7 11 30.76 1042 10 16 0.00 0.03
11:52 pm 23:52 Mostly Cloudy with Light Snow 7 -13.9 -1 -18.3 70 70 NW 8 13 30.77 1042 9 14 0.00 0.03

Powered by AerisWeather